User: anonymous   Login
Location: Newark
(49.1000°N, 0.4667°W)
Time: 00:22:30
(UTC+00:00)
Language:

ITUPSAT 1 - Orbit

View from above orbital plane
View from above orbital plane
View from above satellite
View from above satellite

Ground track
Ground track

The orbit data is extracted from the following two-line orbital elements,

1 35935U 09051E   20188.44083034 +.00000049 +00000-0 +22394-4 0  9992
2 35935 098.6208 013.3970 0009338 082.5484 277.6773 14.55623585572431
Epoch (UTC): 06 July 2020 10:34:47
Eccentricity: 0.0009338
inclination: 98.6208°
perigee height: 701 km
apogee height: 714 km
right ascension of ascending node: 13.3970°
argument of perigee: 82.5484°
revolutions per day: 14.55623585
mean anomaly at epoch: 277.6773°
orbit number at epoch: 57243

The dashed part of the orbit path shows where the satellite is in the earth's shadow,  

DLR